Location: Home
(42.5358°N, 72.7383°W)
Time: 10:04:38
(UTC-05:00)

S-56A Canister/Altair - Pass Details

Date: 30 November 2021
Orbit: 634 x 2499 km, 38.9° (Epoch: 22 January)

Event Time Altitude Azimuth Distance (km) Brightness Sun altitude
Rises 00:08:48 0° 224° (SW) 4,980 - -68.3°
Reaches altitude 10° 00:12:55 10° 216° (SW) 3,663 - -68.0°
Maximum altitude 00:20:30 32° 157° (SSE) 1,832 - -67.5°
Drops below altitude 10° 00:25:55 10° 96° (E) 2,583 - -67.0°
Sets 00:28:19 0° 86° (E) 3,344 - -66.8°
